EW5945 Weather Reports


Display with metric or nautical units.
time (UTC)temp
F
wind
direction
speed
MPH
gust
MPH
rain 1hr
in
rain 24hr
in
rain mn
in
humidity
%
barometer
mb
20260902161840 90 310 0.0 2.0 0.00 0.00 0.00 72 1018.3
20260902161338 89 268 5.0 7.0 0.00 0.00 0.00 72 1018.3
20260902160841 89 276 3.0 3.0 0.00 0.00 0.00 72 1018.3
20260902160338 89 241 5.0 7.0 0.00 0.00 0.00 73 1018.3
20260902155839 89 317 5.0 7.0 0.00 0.00 0.00 73 1018.3
20260902155339 89 291 3.0 3.0 0.00 0.00 0.00 73 1018.3
20260902154838 88 277 5.0 5.0 0.00 0.00 0.00 74 1018.3
20260902154339 88 231 3.0 7.0 0.00 0.00 0.00 73 1018.3
20260902153839 88 245 2.0 2.0 0.00 0.00 0.00 74 1018.3
20260902153339 88 294 6.0 7.0 0.00 0.00 0.00 73 1018.3
20260902152845 88 279 3.0 3.0 0.00 0.00 0.00 73 1018.3
20260902152339 87 257 3.0 3.0 0.00 0.00 0.00 76 1018.3
20260902151838 87 291 5.0 7.0 0.00 0.00 0.00 74 1018.3
20260902151338 87 251 2.0 3.0 0.00 0.00 0.00 74 1018.3
20260902150847 87 285 3.0 5.0 0.00 0.00 0.00 75 1018.3
20260902150339 87 302 10.0 12.0 0.00 0.00 0.00 75 1018.3
20260902145839 87 252 5.0 7.0 0.00 0.00 0.00 75 1018.3
20260902145339 86 235 5.0 5.0 0.00 0.00 0.00 76 1018.3
20260902144838 86 275 3.0 7.0 0.00 0.00 0.00 77 1018.3
20260902144338 86 214 2.0 2.0 0.00 0.00 0.00 78 1018.3
20260902143839 85 225 2.0 3.0 0.00 0.00 0.00 76 1018.3
20260902143340 85 224 2.0 3.0 0.00 0.00 0.00 77 1018.3
20260902142839 85 257 3.0 3.0 0.00 0.00 0.00 77 1018.3
20260902142349 84 302 5.0 5.0 0.00 0.00 0.00 78 1018.3
20260902141839 84 225 5.0 5.0 0.00 0.00 0.00 78 1018.3
20260902141338 84 222 2.0 3.0 0.00 0.00 0.00 76 1018.3
20260902140839 84 285 3.0 5.0 0.00 0.00 0.00 77 1018.3
20260902140338 83 234 5.0 5.0 0.00 0.00 0.00 79 1018.3
20260902135840 83 296 0.0 2.0 0.00 0.00 0.00 80 1018.6
20260902135341 83 289 2.0 3.0 0.00 0.00 0.00 79 1018.3
20260902134839 83 232 2.0 3.0 0.00 0.00 0.00 79 1018.3
20260902134340 83 237 3.0 5.0 0.00 0.00 0.00 79 1018.3
20260902133839 82 231 3.0 5.0 0.00 0.00 0.00 81 1018.3
20260902133338 82 278 3.0 5.0 0.00 0.00 0.00 82 1018.3
20260902132838 81 312 3.0 3.0 0.00 0.00 0.00 82 1018.3
20260902132341 81 268 2.0 3.0 0.00 0.00 0.00 83 1018.3
20260902131838 81 209 3.0 3.0 0.00 0.00 0.00 83 1018.3
20260902131339 80 233 5.0 5.0 0.00 0.00 0.00 86 1018.6
20260902130838 80 207 3.0 5.0 0.00 0.00 0.00 88 1018.6
20260902130339 80 216 3.0 3.0 0.00 0.00 0.00 91 1018.6
20260902125839 79 240 2.0 3.0 0.00 0.00 0.00 92 1018.6
20260902125341 78 225 3.0 5.0 0.00 0.00 0.00 94 1018.6
20260902124839 78 226 2.0 3.0 0.00 0.00 0.00 96 1018.6
20260902124341 77 261 2.0 3.0 0.00 0.00 0.00 98 1018.6
20260902123839 77 213 3.0 3.0 0.00 0.00 0.00 98 1018.6
20260902123339 77 260 5.0 5.0 0.00 0.00 0.00 99 1018.6
20260902122838 77 242 3.0 5.0 0.00 0.00 0.00 100 1019.0
20260902122339 76 218 2.0 2.0 0.00 0.00 0.00 100 1019.0
20260902121839 76 255 2.0 3.0 0.00 0.00 0.00 100 1019.0
20260902121338 76 250 3.0 3.0 0.00 0.00 0.00 100 1018.6
20260902120839 76 294 3.0 3.0 0.00 0.00 0.00 100 1019.0
20260902120339 76 293 0.0 2.0 0.00 0.00 0.00 100 1018.6
20260902115838 76 260 2.0 2.0 0.00 0.00 0.00 100 1018.6
20260902115339 76 214 3.0 3.0 0.00 0.00 0.00 100 1018.6
20260902114838 76 260 2.0 2.0 0.00 0.00 0.00 100 1018.6
20260902114338 75 270 2.0 3.0 0.00 0.00 0.00 100 1018.6
20260902113838 75 249 2.0 2.0 0.00 0.00 0.00 100 1018.6
20260902113338 75 223 2.0 3.0 0.00 0.00 0.00 100 1018.6
20260902112838 75 207 2.0 2.0 0.00 0.00 0.00 100 1018.6
20260902112339 75 255 0.0 2.0 0.00 0.00 0.00 100 1018.6
20260902111839 75 274 3.0 3.0 0.00 0.00 0.00 100 1018.6
20260902111338 75 277 0.0 0.0 0.00 0.00 0.00 100 1018.6
20260902110841 75 255 0.0 0.0 0.00 0.00 0.00 100 1018.6
20260902110338 75 247 2.0 2.0 0.00 0.00 0.00 100 1018.3
20260902105840 75 244 2.0 2.0 0.00 0.00 0.00 100 1018.3
20260902105338 74 281 0.0 0.0 0.00 0.00 0.00 100 1018.3
20260902104839 74 304 0.0 0.0 0.00 0.00 0.00 100 1018.3
20260902104339 74 304 0.0 0.0 0.00 0.00 0.00 100 1018.3
20260902103838 74 304 0.0 0.0 0.00 0.00 0.00 100 1018.3
20260902103339 74 304 0.0 0.0 0.00 0.00 0.00 100 1018.3
20260902102838 74 306 0.0 0.0 0.00 0.00 0.00 100 1018.6
20260902102344 75 306 0.0 0.0 0.00 0.00 0.00 100 1018.3
20260902101839 75 306 0.0 0.0 0.00 0.00 0.00 100 1018.3
20260902101338 75 306 0.0 0.0 0.00 0.00 0.00 100 1018.3
20260902100839 75 306 0.0 0.0 0.00 0.00 0.00 100 1018.6
20260902100338 75 304 0.0 0.0 0.00 0.00 0.00 100 1018.3
20260902095838 75 304 0.0 0.0 0.00 0.00 0.00 100 1018.3
20260902095338 75 298 0.0 0.0 0.00 0.00 0.00 100 1018.3
20260902094838 75 280 0.0 0.0 0.00 0.00 0.00 100 1018.3
20260902094339 75 261 0.0 0.0 0.00 0.00 0.00 100 1017.9
20260902093839 75 255 0.0 2.0 0.00 0.00 0.00 100 1017.9
20260902093338 75 266 2.0 2.0 0.00 0.00 0.00 100 1017.9
20260902092838 75 272 0.0 2.0 0.00 0.00 0.00 100 1017.9
20260902092339 75 303 0.0 0.0 0.00 0.00 0.00 100 1017.9
20260902091838 75 339 0.0 0.0 0.00 0.00 0.00 100 1018.3
20260902091338 75 342 0.0 0.0 0.00 0.00 0.00 100 1018.3
20260902090839 75 341 0.0 0.0 0.00 0.00 0.00 100 1018.3
20260902090338 75 265 0.0 0.0 0.00 0.00 0.00 100 1017.9
20260902085838 75 265 0.0 0.0 0.00 0.00 0.00 100 1017.9
20260902085338 75 260 0.0 0.0 0.00 0.00 0.00 100 1017.9
20260902084839 75 236 2.0 2.0 0.00 0.00 0.00 100 1017.9
20260902084341 75 283 0.0 0.0 0.00 0.00 0.00 100 1017.9
20260902083839 75 278 0.0 0.0 0.00 0.00 0.00 100 1017.9
20260902083339 75 278 0.0 0.0 0.00 0.00 0.00 100 1017.9
20260902082838 75 271 0.0 0.0 0.00 0.00 0.00 100 1017.9
20260902082351 75 271 0.0 0.0 0.00 0.00 0.00 100 1017.9
20260902081838 75 267 0.0 0.0 0.00 0.00 0.00 100 1017.9
20260902081339 75 262 0.0 2.0 0.00 0.00 0.00 100 1017.9
20260902080839 75 241 0.0 2.0 0.00 0.00 0.00 100 1017.9
20260902080340 75 285 0.0 0.0 0.00 0.00 0.00 100 1017.9
20260902075839 75 289 0.0 0.0 0.00 0.00 0.00 100 1017.9
20260902075340 75 277 0.0 0.0 0.00 0.00 0.00 100 1017.9
20260902074838 76 277 0.0 0.0 0.00 0.00 0.00 100 1017.9
20260902074339 76 277 0.0 0.0 0.00 0.00 0.00 100 1017.9
20260902073839 76 277 0.0 0.0 0.00 0.00 0.00 100 1017.9
20260902073338 76 274 0.0 0.0 0.00 0.00 0.00 100 1017.9
20260902072838 76 271 0.0 0.0 0.00 0.00 0.00 100 1017.9
20260902072338 76 284 0.0 0.0 0.00 0.00 0.00 100 1017.9
20260902071838 76 257 2.0 2.0 0.00 0.00 0.00 100 1017.9
20260902071338 76 276 0.0 0.0 0.00 0.00 0.00 100 1017.9
20260902070838 76 276 0.0 0.0 0.00 0.00 0.00 100 1017.9
20260902070338 76 272 0.0 0.0 0.00 0.00 0.00 100 1017.9
20260902065838 76 276 0.0 0.0 0.00 0.00 0.00 100 1017.9
20260902065339 76 320 0.0 0.0 0.00 0.00 0.00 100 1017.9
20260902064838 76 327 0.0 0.0 0.00 0.00 0.00 100 1018.3
20260902064340 76 329 0.0 0.0 0.00 0.00 0.00 100 1018.3
20260902063838 76 336 0.0 0.0 0.00 0.00 0.00 100 1018.3
20260902063338 76 297 0.0 0.0 0.00 0.00 0.00 100 1018.3
20260902062838 76 303 0.0 0.0 0.00 0.00 0.00 100 1018.3
20260902062338 76 301 0.0 0.0 0.00 0.00 0.00 100 1018.3
20260902061838 76 299 0.0 0.0 0.00 0.00 0.00 99 1018.3
20260902061339 76 340 0.0 0.0 0.00 0.00 0.00 99 1018.3
20260902060841 77 257 0.0 2.0 0.00 0.00 0.00 99 1018.3
20260902060338 77 261 0.0 2.0 0.00 0.00 0.00 99 1018.6
20260902055838 76 234 2.0 2.0 0.00 0.00 0.00 99 1018.3
20260902055339 76 275 0.0 0.0 0.00 0.00 0.00 99 1018.6
20260902054838 76 270 0.0 0.0 0.00 0.00 0.00 99 1018.3
20260902054338 77 305 0.0 0.0 0.00 0.00 0.00 99 1018.3
20260902053838 77 307 0.0 0.0 0.00 0.00 0.00 99 1018.3
20260902053338 77 288 0.0 2.0 0.00 0.00 0.00 99 1018.3
20260902052840 77 14 0.0 2.0 0.00 0.00 0.00 99 1018.3
20260902052339 77 286 2.0 2.0 0.00 0.00 0.00 99 1018.3
20260902051842 77 278 0.0 0.0 0.00 0.00 0.00 99 1018.3
20260902051339 77 285 0.0 2.0 0.00 0.00 0.00 98 1018.3
20260902050840 77 289 0.0 0.0 0.00 0.00 0.00 98 1018.3
20260902050338 77 287 0.0 0.0 0.00 0.00 0.00 98 1018.3
20260902045839 77 287 0.0 0.0 0.00 0.00 0.00 98 1018.3
20260902045338 77 287 0.0 0.0 0.00 0.00 0.00 98 1017.9
20260902044839 77 280 0.0 0.0 0.00 0.00 0.00 98 1017.9
20260902044338 77 298 0.0 0.0 0.00 0.00 0.00 98 1017.9
20260902043839 77 222 2.0 2.0 0.00 0.00 0.00 98 1017.9
20260902043339 77 278 0.0 0.0 0.00 0.00 0.00 97 1017.9
20260902042839 77 345 0.0 0.0 0.00 0.00 0.00 97 1017.9
20260902042338 77 346 0.0 0.0 0.00 0.00 0.00 97 1017.9
20260902041843 77 341 0.0 2.0 0.00 0.00 0.00 97 1017.6
20260902041338 77 10 0.0 2.0 0.00 0.00 0.00 97 1017.6
20260902040838 78 232 3.0 3.0 0.00 0.00 0.00 97 1017.6
20260902040338 78 299 0.0 2.0 0.00 0.00 0.00 97 1017.6
20260902035838 78 251 2.0 2.0 0.00 0.00 0.00 97 1017.6
20260902035338 78 233 0.0 2.0 0.00 0.00 0.00 97 1017.6
20260902034838 78 239 2.0 3.0 0.00 0.00 0.00 97 1017.6
20260902034338 78 288 0.0 0.0 0.00 0.00 0.00 96 1017.6
20260902033838 78 231 2.0 2.0 0.00 0.00 0.00 96 1017.6
20260902033338 78 267 0.0 2.0 0.00 0.00 0.00 96 1017.6
20260902032839 78 279 0.0 2.0 0.00 0.00 0.00 96 1017.6
20260902032338 78 297 0.0 0.0 0.00 0.00 0.00 95 1017.6
20260902031839 78 306 0.0 0.0 0.00 0.00 0.00 95 1017.6
20260902031338 78 286 0.0 0.0 0.00 0.00 0.00 95 1017.6
20260902030839 78 280 2.0 2.0 0.00 0.00 0.00 95 1017.6
20260902030339 78 276 0.0 0.0 0.00 0.00 0.00 95 1017.6
20260902025838 79 276 0.0 2.0 0.00 0.00 0.00 95 1017.6
20260902025338 79 295 2.0 2.0 0.00 0.00 0.00 94 1017.6
20260902024838 79 254 3.0 3.0 0.00 0.00 0.00 94 1017.3
20260902024338 79 272 3.0 3.0 0.00 0.00 0.00 94 1017.3
20260902023838 79 249 2.0 3.0 0.00 0.00 0.00 94 1017.3
20260902023338 79 217 3.0 3.0 0.00 0.00 0.00 94 1017.3
20260902022839 79 264 2.0 2.0 0.00 0.00 0.00 94 1017.6
20260902022338 79 254 0.0 2.0 0.00 0.00 0.00 93 1017.6
20260902021838 79 253 0.0 2.0 0.00 0.00 0.00 93 1017.6
20260902021339 79 259 2.0 2.0 0.00 0.00 0.00 93 1017.3
20260902020839 79 260 0.0 2.0 0.00 0.00 0.00 93 1017.3
20260902020340 80 226 2.0 3.0 0.00 0.00 0.00 93 1017.3
20260902015840 80 238 3.0 3.0 0.00 0.00 0.00 92 1017.3
20260902015340 80 272 3.0 5.0 0.00 0.00 0.00 92 1017.6
20260902014838 80 240 2.0 3.0 0.00 0.00 0.00 92 1017.6
20260902014338 80 251 2.0 2.0 0.00 0.00 0.00 92 1017.6
20260902013838 80 235 2.0 3.0 0.00 0.00 0.00 91 1017.6
20260902013339 80 221 3.0 3.0 0.00 0.00 0.00 91 1017.3
20260902012839 80 238 2.0 2.0 0.00 0.00 0.00 91 1017.3
20260902012340 80 214 3.0 3.0 0.00 0.00 0.00 91 1017.3
20260902011838 80 212 3.0 3.0 0.00 0.00 0.00 90 1017.3
20260902011338 81 225 2.0 3.0 0.00 0.00 0.00 90 1017.3
20260902010839 81 257 2.0 3.0 0.00 0.00 0.00 90 1017.3
20260902010339 81 250 3.0 5.0 0.00 0.00 0.00 90 1017.3
20260902005838 81 276 2.0 3.0 0.00 0.00 0.00 90 1017.3
20260902005339 81 259 0.0 2.0 0.00 0.00 0.00 90 1017.3
20260902004838 81 284 3.0 3.0 0.00 0.00 0.00 90 1017.3
20260902004339 81 201 2.0 2.0 0.00 0.00 0.00 89 1017.3
20260902003839 81 215 0.0 2.0 0.00 0.00 0.00 89 1017.3
20260902003339 81 245 2.0 2.0 0.00 0.00 0.00 89 1017.3
20260902002839 81 217 3.0 3.0 0.00 0.00 0.00 88 1017.3
20260902002338 81 226 2.0 2.0 0.00 0.00 0.00 88 1017.3
20260902001838 81 196 2.0 3.0 0.00 0.00 0.00 87 1017.3
20260902001338 82 253 0.0 0.0 0.00 0.00 0.00 87 1017.3
20260902000838 82 279 0.0 0.0 0.00 0.00 0.00 86 1017.3
20260902000339 82 266 0.0 0.0 0.00 0.00 0.00 86 1017.3
20260901235838 82 29 0.0 2.0 0.00 0.00 0.00 86 1017.3
20260901235338 82 281 0.0 0.0 0.00 0.00 0.00 85 1017.3
20260901234838 82 147 0.0 2.0 0.00 0.00 0.00 85 1017.3
20260901234338 83 147 0.0 2.0 0.00 0.00 0.00 85 1017.3
20260901233838 83 249 3.0 3.0 0.00 0.00 0.00 84 1017.3
20260901233339 83 276 0.0 0.0 0.00 0.00 0.00 84 1017.3
20260901232839 83 249 2.0 2.0 0.00 0.00 0.00 84 1017.3
20260901232338 83 303 0.0 0.0 0.00 0.00 0.00 83 1017.3
20260901231838 84 210 2.0 2.0 0.00 0.00 0.00 82 1017.3
20260901231339 84 201 3.0 3.0 0.00 0.00 0.00 82 1017.3
20260901230839 85 236 3.0 3.0 0.00 0.00 0.00 81 1017.3
20260901230339 85 237 2.0 3.0 0.00 0.00 0.00 81 1017.3
20260901225838 85 208 2.0 2.0 0.00 0.00 0.00 80 1017.3
20260901225338 86 256 2.0 2.0 0.00 0.00 0.00 80 1017.3
20260901224839 86 265 0.0 0.0 0.00 0.00 0.00 79 1017.3
20260901224338 86 16 0.0 0.0 0.00 0.00 0.00 79 1017.3
20260901223839 86 13 0.0 0.0 0.00 0.00 0.00 79 1017.3
20260901223340 86 75 2.0 3.0 0.00 0.00 0.00 80 1017.3
20260901222838 86 268 2.0 2.0 0.00 0.00 0.00 80 1017.3
20260901222338 86 101 2.0 2.0 0.00 0.00 0.00 80 1017.3
20260901221839 86 261 0.0 2.0 0.00 0.00 0.00 80 1017.3
20260901221339 87 125 3.0 3.0 0.00 0.00 0.00 78 1017.3
20260901220350 87 319 2.0 2.0 0.00 0.00 0.00 78 1017.3
20260901215839 88 260 3.0 3.0 0.00 0.00 0.00 76 1016.9
20260901215338 88 204 2.0 2.0 0.00 0.00 0.00 75 1017.3
20260901214839 88 261 2.0 3.0 0.00 0.00 0.00 74 1016.9
20260901214338 89 229 3.0 3.0 0.00 0.00 0.00 76 1017.3
20260901213838 88 213 2.0 3.0 0.00 0.00 0.00 77 1017.3
20260901213338 88 348 2.0 2.0 0.00 0.00 0.00 76 1016.9
20260901212838 90 251 2.0 3.0 0.00 0.00 0.00 75 1016.9
20260901212339 89 343 0.0 2.0 0.00 0.00 0.00 76 1016.9
20260901211839 89 290 0.0 2.0 0.00 0.00 0.00 75 1016.9
20260901211338 88 296 0.0 2.0 0.00 0.00 0.00 74 1016.9
20260901210839 88 235 2.0 2.0 0.00 0.00 0.00 75 1017.3
20260901210339 89 123 2.0 3.0 0.00 0.00 0.00 75 1016.9
20260901205839 89 225 2.0 3.0 0.00 0.00 0.00 73 1017.3
20260901205338 90 229 2.0 2.0 0.00 0.00 0.00 74 1017.3
20260901204839 90 225 2.0 3.0 0.00 0.00 0.00 75 1017.3
20260901204339 91 166 2.0 5.0 0.00 0.00 0.00 74 1017.3
20260901203838 90 97 2.0 2.0 0.00 0.00 0.00 77 1017.3
20260901203339 92 276 5.0 5.0 0.00 0.00 0.00 74 1017.3
20260901202840 91 39 2.0 3.0 0.00 0.00 0.00 73 1016.9
20260901202339 92 219 3.0 5.0 0.00 0.00 0.00 73 1016.9
20260901201838 91 302 0.0 2.0 0.00 0.00 0.00 76 1016.9
20260901201339 92 227 3.0 3.0 0.00 0.00 0.00 73 1017.3
20260901200841 91 172 3.0 3.0 0.00 0.00 0.00 72 1017.3
20260901200340 91 241 2.0 2.0 0.00 0.00 0.00 72 1017.3
20260901195839 92 304 3.0 5.0 0.00 0.00 0.00 73 1017.3
20260901195338 92 327 2.0 2.0 0.00 0.00 0.00 69 1017.3
20260901194838 93 246 3.0 5.0 0.00 0.00 0.00 65 1017.3
20260901194338 93 234 3.0 5.0 0.00 0.00 0.00 66 1017.3
20260901193839 92 194 2.0 2.0 0.00 0.00 0.00 66 1017.3
20260901193338 93 219 3.0 3.0 0.00 0.00 0.00 65 1017.3
20260901192838 92 84 2.0 2.0 0.00 0.00 0.00 63 1017.3
20260901192340 92 237 0.0 3.0 0.00 0.00 0.00 65 1017.3
20260901191838 92 229 2.0 2.0 0.00 0.00 0.00 65 1017.3
20260901191338 93 239 3.0 3.0 0.00 0.00 0.00 62 1017.6
20260901190839 92 289 0.0 2.0 0.00 0.00 0.00 67 1017.6
20260901190339 92 131 2.0 2.0 0.00 0.00 0.00 66 1017.6
20260901185838 91 356 0.0 0.0 0.00 0.00 0.00 67 1017.6
20260901185339 92 200 2.0 3.0 0.00 0.00 0.00 67 1017.6
20260901184838 90 208 2.0 2.0 0.00 0.00 0.00 69 1017.6
20260901184338 93 264 3.0 5.0 0.00 0.00 0.00 66 1017.6
20260901183839 93 21 0.0 2.0 0.00 0.00 0.00 64 1017.9
20260901183339 93 293 2.0 2.0 0.00 0.00 0.00 61 1017.6
20260901182839 93 222 3.0 5.0 0.00 0.00 0.00 61 1017.6
20260901182342 92 273 2.0 2.0 0.00 0.00 0.00 64 1017.6
20260901181839 91 91 2.0 2.0 0.00 0.00 0.00 65 1017.6
20260901181338 93 180 3.0 3.0 0.00 0.00 0.00 60 1017.9
20260901180839 93 225 5.0 5.0 0.00 0.00 0.00 60 1017.9
20260901180339 93 292 2.0 5.0 0.00 0.00 0.00 61 1017.9
20260901175838 93 298 0.0 3.0 0.00 0.00 0.00 60 1017.9
20260901175338 93 26 3.0 3.0 0.00 0.00 0.00 59 1017.9
20260901174838 93 247 2.0 3.0 0.00 0.00 0.00 61 1017.9
20260901174338 92 211 3.0 3.0 0.00 0.00 0.00 60 1018.3
20260901173838 92 205 2.0 2.0 0.00 0.00 0.00 63 1018.3
20260901173338 92 206 2.0 3.0 0.00 0.00 0.00 63 1018.3
20260901172839 93 282 2.0 5.0 0.00 0.00 0.00 63 1018.3
20260901172338 91 248 3.0 3.0 0.00 0.00 0.00 65 1018.3
20260901171839 90 293 0.0 2.0 0.00 0.00 0.00 67 1018.3
20260901171338 91 116 2.0 2.0 0.00 0.00 0.00 64 1018.3
20260901170839 90 277 0.0 0.0 0.00 0.00 0.00 66 1018.3
20260901170339 89 345 0.0 0.0 0.00 0.00 0.00 67 1018.3
20260901165838 89 87 2.0 2.0 0.00 0.00 0.00 65 1018.6
20260901165338 89 231 0.0 2.0 0.00 0.00 0.00 64 1018.6
20260901164839 90 302 2.0 2.0 0.00 0.00 0.00 60 1018.6
20260901164338 90 314 3.0 3.0 0.00 0.00 0.00 64 1018.6
20260901163839 89 273 3.0 3.0 0.00 0.00 0.00 60 1018.6
20260901163339 89 326 3.0 5.0 0.00 0.00 0.00 67 1018.6
20260901162839 89 266 2.0 2.0 0.00 0.00 0.00 69 1018.6
20260901162338 89 281 3.0 3.0 0.00 0.00 0.00 69 1019.0